URKCB UKLL-ZZZZ

Flight info

Callsign URKCB
Flight time N/A
Altitude 2500
Route UKLLC DCT
Aircraft C208/L-SDE3FGHIRWY/LB1D1

Departure

Time 2026-04-22 17:35
Airport Lviv International Airport (UKLL)

Arrival

Time N/A
Airport ZZZZ
Time Latitude Longitude Altitude Speed Heading
2026-04-22 17:21 49.81770 23.95072 1064 ft 0 kts 158°
2026-04-22 17:31 49.81765 23.95076 1061 ft 4 kts 157°
2026-04-22 17:32 49.81701 23.95113 1064 ft 14 kts 159°
2026-04-22 17:32 49.81615 23.95218 1064 ft 16 kts 136°
2026-04-22 17:32 49.81541 23.95331 1064 ft 14 kts 135°
2026-04-22 17:32 49.81474 23.95431 1064 ft 13 kts 135°
2026-04-22 17:33 49.81427 23.95477 1064 ft 12 kts 157°
2026-04-22 17:33 49.81356 23.95454 1064 ft 0 kts 225°
2026-04-22 17:33 49.81334 23.95421 1064 ft 9 kts 224°
2026-04-22 17:34 49.81313 23.95332 1064 ft 8 kts 301°
2026-04-22 17:34 49.81326 23.95310 1063 ft 0 kts 313°
2026-04-22 17:34 49.81408 23.95185 1063 ft 41 kts 316°
2026-04-22 17:35 49.81713 23.94707 1106 ft 74 kts 308°
2026-04-22 17:35 49.82068 23.94087 1315 ft 77 kts 314°
2026-04-22 17:35 49.82447 23.93492 1551 ft 78 kts 313°
2026-04-22 17:35 49.82826 23.92921 1864 ft 73 kts 319°
2026-04-22 17:36 49.83007 23.92178 2097 ft 86 kts 265°
2026-04-22 17:36 49.82495 23.91398 2191 ft 122 kts 218°
2026-04-22 17:36 49.81674 23.90788 2325 ft 140 kts 197°
2026-04-22 17:36 49.80701 23.91133 2535 ft 155 kts 152°
2026-04-22 17:37 49.79715 23.92114 2412 ft 171 kts 144°
2026-04-22 17:37 49.78750 23.93148 2262 ft 164 kts 150°
2026-04-22 17:37 49.77765 23.93812 2383 ft 146 kts 173°
2026-04-22 17:37 49.76789 23.93768 2450 ft 138 kts 199°
2026-04-22 17:38 49.75871 23.93310 2418 ft 140 kts 207°
2026-04-22 17:38 49.74982 23.92739 2467 ft 134 kts 212°
2026-04-22 17:38 49.74134 23.92156 2495 ft 134 kts 209°
2026-04-22 17:38 49.73248 23.91635 2495 ft 137 kts 205°
2026-04-22 17:39 49.72652 23.91303 2493 ft 137 kts 206°
2026-04-22 17:39 49.71731 23.90792 2492 ft 146 kts 205°
2026-04-22 17:39 49.69717 23.89667 2491 ft 159 kts 205°
2026-04-22 17:40 49.68686 23.89024 2486 ft 160 kts 209°
2026-04-22 17:40 49.67661 23.88339 2491 ft 161 kts 208°
2026-04-22 17:40 49.66633 23.87661 2491 ft 159 kts 208°
2026-04-22 17:40 49.65633 23.86913 2487 ft 160 kts 215°
2026-04-22 17:41 49.64673 23.86034 2488 ft 161 kts 218°
2026-04-22 17:41 49.63736 23.85088 2479 ft 160 kts 220°
2026-04-22 17:41 49.62823 23.84119 2477 ft 158 kts 221°
2026-04-22 17:41 49.61933 23.83134 2480 ft 157 kts 222°
2026-04-22 17:42 49.61036 23.82154 2479 ft 158 kts 223°
2026-04-22 17:42 49.60149 23.81158 2481 ft 158 kts 223°
2026-04-22 17:42 49.59255 23.80155 2486 ft 159 kts 223°
2026-04-22 17:42 49.58347 23.79163 2485 ft 161 kts 221°
2026-04-22 17:43 49.57415 23.78204 2483 ft 161 kts 221°
2026-04-22 17:43 49.56494 23.77266 2482 ft 160 kts 220°
2026-04-22 17:43 49.55555 23.76319 2483 ft 160 kts 220°
2026-04-22 17:43 49.54641 23.75385 2487 ft 160 kts 220°
2026-04-22 17:44 49.53718 23.74434 2482 ft 159 kts 220°
2026-04-22 17:44 49.52794 23.73483 2490 ft 160 kts 221°
2026-04-22 17:44 49.51864 23.72521 2496 ft 162 kts 221°
2026-04-22 17:44 49.50934 23.71570 2494 ft 160 kts 220°
2026-04-22 17:45 49.50008 23.70621 2493 ft 159 kts 221°
2026-04-22 17:45 49.49088 23.69682 2501 ft 160 kts 220°
2026-04-22 17:45 49.48156 23.68733 2495 ft 161 kts 220°
2026-04-22 17:45 49.47226 23.67781 2495 ft 161 kts 220°
2026-04-22 17:46 49.46300 23.66825 2488 ft 159 kts 220°
2026-04-22 17:46 49.45403 23.65915 2483 ft 143 kts 221°
2026-04-22 17:46 49.44627 23.65166 2474 ft 122 kts 221°
2026-04-22 17:46 49.43922 23.64489 2331 ft 119 kts 222°
2026-04-22 17:47 49.43252 23.63783 2089 ft 118 kts 225°
2026-04-22 17:47 49.42617 23.63043 1919 ft 113 kts 227°
2026-04-22 17:47 49.42005 23.62304 1767 ft 111 kts 225°
2026-04-22 17:47 49.41404 23.61597 1672 ft 105 kts 223°
2026-04-22 17:48 49.40831 23.60955 1600 ft 99 kts 221°
2026-04-22 17:48 49.40287 23.60449 1536 ft 89 kts 212°
2026-04-22 17:48 49.39777 23.59992 1429 ft 80 kts 215°
2026-04-22 17:48 49.39314 23.59538 1376 ft 79 kts 220°
2026-04-22 17:49 49.38860 23.59069 1352 ft 78 kts 217°
2026-04-22 17:49 49.38421 23.58614 1247 ft 75 kts 217°
2026-04-22 17:49 49.37994 23.58160 1156 ft 74 kts 217°
2026-04-22 17:49 49.37567 23.57721 1066 ft 74 kts 214°
2026-04-22 17:50 49.37143 23.57280 932 ft 73 kts 217°
2026-04-22 17:50 49.36758 23.56877 901 ft 56 kts 212°
2026-04-22 17:50 49.36535 23.56642 908 ft 20 kts 214°
2026-04-22 17:50 49.36488 23.56650 910 ft 9 kts 123°
2026-04-22 17:51 49.36437 23.56728 909 ft 9 kts 193°
2026-04-22 17:51 49.36436 23.56765 909 ft 3 kts 309°
2026-04-22 17:51 49.36436 23.56764 909 ft 0 kts 301°